          24 12  13 47.10  -20 19.1   1.922  1.693     7.5 / 341  11.7   89  .93

          25 12  13 46.93  -20 12.0   1.951  1.700     7.0 / 343  11.8  102  .98

          26 12  13 46.79  -20 05.2   1.981  1.707     6.6 / 346  11.8  114 1.00

          27 12  13 46.67  -19 58.9   2.010  1.714     6.2 / 348  11.9  127 1.00

          28 12  13 46.58  -19 52.8   2.038  1.721     5.8 / 350  11.9  140  .97

          29 12  13 46.51  -19 47.0   2.067  1.728     5.5 / 353  12.0  153  .92

          30 12  13 46.47  -19 41.6   2.095  1.735     5.2 / 356  12.0  163  .85

          31 12  13 46.44  -19 36.4   2.123  1.743     4.9 / 359  12.0  166  .77

     Sept. 1 12  13 46.44  -19 31.5   2.151  1.750     4.6 /   2  12.1  158  .66

NAKANO

         **** Don't distribute anyone except personal use only ****

                (C) Copyright 1999 OAA/ComputingSection

write mail from CFAD0::NAKANO on 1999-07-21 19:13:03(JST).



    C/1998 T1 (LINEAR) 

Epoch 1999 July 1.0 TT = JDT 2451360.5  

T 1999 June 25.25700 TT                                 Nakano

q   1.4682525            (2000.0)            P               Q

z  +0.0005510      Peri.  226.33003     +0.29753127     -0.95163062

 +/-0.0000224      Node   153.35324     -0.81938778     -0.21333268

e   0.9991910      Incl.  170.16020     -0.48997837     -0.22110706

From 219 observations 1998 Oct. 2-1999 Jan. 13, mean residual 0".57.



    C/1998 T1 (LINEAR) 

Epoch 1999 July 1.0 TT = JDT 2451360.5  

T 1999 June 25.25777 TT                                 Nakano

q   1.4681179            (2000.0)            P               Q

z  +0.0005793      Peri.  226.33613     +0.29744244     -0.95165852

 +/-0.0000332      Node   153.35400     -0.81940653     -0.21325655

e   0.9991496      Incl.  170.16014     -0.49000096     -0.22106043

From 214 observations 1998 Oct. 2-Dec. 28, mean residual 0".57.



    C/1998 T1 (LINEAR) 

T 1999 June 25.19672 TT                                 Nakano

q   1.4682781            (2000.0)            P               Q

                   Peri.  226.29034     +0.29780756     -0.95154234

                   Node   153.33036     -0.81938205     -0.21358312

e   1.0            Incl.  170.16512     -0.48982008     -0.22124518

From 182 observations 1998 Oct. 2-Dec. 4.



戻ります。